Location: Appletree Creek
(38.7363°N, 122.6833°W)
Time: 09:34:35
(UTC+00:00)

IRIDIUM 106 - Pass Details

Date: 18 September 2020
Orbit: 776 x 779 km, 86.4° (Epoch: 21 October)

Event Time Altitude Azimuth Distance (km) Brightness Sun altitude
Rises 12:38:58 0° 353° (N) 3,267 7.7 -15.5°
Reaches altitude 10° 12:41:21 10° 350° (N) 2,335 6.9 -15.1°
Maximum altitude 12:46:28 59° 272° (W) 894 4.3 -14.1°
Drops below altitude 10° 12:51:34 10° 193° (SSW) 2,318 6.5 -13.2°
Sets 12:53:55 0° 190° (S) 3,240 7.3 -12.7°
